Weather in Novokizhinginsk

Russia / Republic of Buryatia     51°37′18″N   109°36′01″E
temp.,
°C
wind,
m/s
gust,
m/s
humid.,
%
clouds,
%
prec.,
mm/h
press.,
hPa
HPBL,
m
21 april, wed
wed2123:00+2nnw217237 0.0 100722
02:000nnw22827 0.0 100726
05:00−3nw23945 0.0 100971
08:000nw3567100 0.0 1011518
11:00+5nw564595 0.0 10111056
14:00+7nw563364 0.0 10101630
17:00+4nw663787 0.0 10131368
20:00−2nw5954100 0.0 1018566
22 april, thu
thu2223:00−4nnw3759100 0.0 1022618
02:00−4nw3549100 0.1 1023711
05:00−5nw2451100 0.5 1026448
08:00−3nnw234926 0.5 1027619
11:00+1n232795 0.0 10261236
14:00+5nne332073 0.0 10241673
17:00+4n2323100 0.3 10261861
20:000nw3749100 1.0 1030368
23 april, fri
fri2323:00−2nw2363100 0.3 1035370
02:00−4nw1290100 1.3 1038183
05:00−4nnw1378100 0.1 1040183
08:00−2n2353100 0.1 1041486
11:00+3nne2341100 0.0 10401223
14:00+6nne3234100 0.0 10381710
17:00+5nne2231100 0.0 10381604
20:00+1nne1141100 0.0 104010
24 april, sat
sat2423:00−1nnw114241 0.0 104110
02:00−3n2250100 0.0 104218
05:00−3ne1156100 0.0 104110
08:00+2ene1240100 0.0 1040258
11:00+8ese223090 0.0 10361145
14:00+10se2234100 0.0 10311436
17:00+11sse2240100 0.0 10291580
20:00+5sse1166100 0.0 102910
25 april, sun
sun2523:00+4ese1173100 0.0 102810
02:00+3se1178100 0.0 102710
05:00+2ese117770 0.0 102510
08:00+7ese125088 0.0 1022235
11:00+14se343642 0.0 1017912
14:00+18se352840 0.0 10111752
17:00+19sse352695 0.0 10072210
20:00+11sw2256100 0.0 100724